Regional Weather Roundup
Issued by NWS Sioux Falls, SD

Home | Current Version | Previous Version | Text Only | Print | Product List | Glossary On
Versions: 1 2 3 4 5 6 7 8 9 10 11 12 13 14 15 16 17 18 19 20 21 22 23 24 25 26 27 28 29 30 31 32 33 34 35 36 37 38 39 40 41 42 43 44 45 46 47 48 49 50
000
ASUS43 KFSD 210710
RWRFSD

WEATHER ROUNDUP FOR SE SOUTH DAKOTA/SW MINNESOTA/NW IOWA
NATIONAL WEATHER SERVICE SIOUX FALLS SD
100 AM CST SAT JAN 21 2017

NOTE: "FAIR" INDICATES FEW OR NO CLOUDS BELOW 12,000 FEET WITH NO
SIGNIFICANT WEATHER AND OR OBSTRUCTIONS TO VISIBILITY.


SDZ038>040-050-052>070-210800-
SOUTHEAST SOUTH DAKOTA

CITY           SKY/WX    TMP DP  RH WIND       PRES   REMARKS
BROOKINGS      LGT RAIN  35  34  96 SE9       29.37F VSB 1/2 WCI  28
CHAMBERLAIN    MOCLDY    26  24  95 W6        29.35S WCI  19
HURON          FOG       37  37 100 S10       29.34S VSB 1
MADISON        CLOUDY    34  34 100 S9          N/A  WCI  26
MITCHELL       CLOUDY    38  38 100 SE9       29.35F FOG
SIOUX FALLS    LGT RAIN  37  37 100 SE8       29.37F FOG
WINNER         CLOUDY    30  27  88 NW10      29.34S WCI  21
YANKTON        CLOUDY    37  36  93 SE8       29.36F
$$

MNZ071-072-080-081-089-090-097-098-210800-
SOUTHWEST MINNESOTA

CITY           SKY/WX    TMP DP  RH WIND       PRES   REMARKS
FAIRMONT       LGT RAIN  34  34 100 E8        29.44F VSB 1/2 WCI  27
JACKSON        FOG       32  32 100 E8        29.42F VSB 1/4 WCI  25
LUVERNE        CLOUDY    34  34 100 SE6       29.40F FOG     WCI  29
MARSHALL       CLOUDY    34  34 100 SE7       29.42F WCI  28
MONTEVIDEO     CLOUDY    34  34 100 S9        29.46S FOG     WCI  26
PIPESTONE      FOG       36  36 100 SE7       29.38F VSB 3/4
REDWOOD FALLS  FOG       34  33  96 SE9       29.45F VSB 1/2 WCI  27
TRACY          CLOUDY    36  35  99 SE6       29.42F
WINDOM         SNOW      36  36 100 E7        29.42F VSB 1/2
WORTHINGTON    FOG       34  34 100 SE8       29.40F VSB 1   WCI  27
$$

IAZ001>003-012>014-020>022-031-032-NEZ013-014-SDZ071-210800-
NORTHWEST IOWA

CITY           SKY/WX    TMP DP  RH WIND       PRES   REMARKS
CHEROKEE       CLOUDY    36  36 100 CALM      29.40F
DENISON        FOG       37  37 100 CALM      29.38F VSB 3/4
ESTHERVILLE    FOG       33  33 100 E6        29.42F VSB 1/2 WCI  28
LE MARS        CLOUDY    37  37 100 E8G14     29.39F
ORANGE CITY    FOG       36  36 100 E5        29.38F VSB 1
SHELDON        CLOUDY    36  36 100 E8        29.38F
SIOUX CITY     FOG       39  39 100 SE6       29.38F VSB 3/4
SPENCER        CLOUDY    35  35 100 E6        29.41F FOG
STORM LAKE     FOG       36  36 100 SE8       29.40F VSB<1/4
$$

ABBREVIATIONS USED IN REMARKS
   TC - TEMPERATURE IN CELSIUS
  WCI - WIND CHILL INDEX
   HX - HEAT INDEX
  VSB - VISIBILITY




USA.gov is the U.S. government's official web portal to all federal, state and local government web resources and services.